Tacoma Narrows, WA
on Thursday, January 10, 2013

Thursday
Previous Day Next Day
Daily Summary
 ActualAverageRecord
Temperature
Mean Temperature °F °F  
Max Temperature 37°F 43°F 55°F (2002)
Min Temperature 33°F 36°F 28°F (1998)
Degree Days
Heating Degree Days 30    
Moisture
Dew Point 32°F   
Average Humidity 86    
Maximum Humidity 93    
Minimum Humidity 79    
Precipitation
Precipitation 0.02 in in in ()
Wind
Wind Speed 5 mph   
Max Wind Speed 9 mph   
Max Gust Speed mph   
Visibility 10 miles   
Events Rain   
Averages and records for this station are not official NWS values.
Key: T is trace of precipitation, MM is missing value
Source: NWS Daily Summary
Seasonal Weather Averages
Time(PST)TemperatureDew PointHumidity Pressure Visibility Wind DirectionWind SpeedGust SpeedPrecipitationEvents Conditions
12:14 AM 35.6°F 32.0°F 87% 29.95 in 10.0 miles SSW 6.9 mph - N/A   Overcast
12:53 AM 36.0°F 32.0°F 86% 29.96 in 10.0 miles SSW 9.2 mph - N/A   Overcast
1:45 AM 35.6°F 32.0°F 87% 29.96 in 10.0 miles SSW 6.9 mph - N/A   Overcast
1:53 AM 36.0°F 32.0°F 86% 29.98 in 10.0 miles SSW 6.9 mph - N/A   Overcast
2:15 AM 35.6°F 30.2°F 81% 29.97 in 10.0 miles SSW 4.6 mph - N/A   Scattered Clouds
2:53 AM 34.0°F 30.9°F 89% 29.98 in 10.0 miles SSW 8.1 mph - N/A   Partly Cloudy
3:20 AM 35.6°F 32.0°F 87% 29.98 in 10.0 miles SSW 6.9 mph - N/A   Mostly Cloudy
3:53 AM 35.1°F 32.0°F 89% 29.99 in 10.0 miles South 4.6 mph - N/A   Overcast
4:13 AM 35.6°F 32.0°F 87% 29.98 in 10.0 miles South 4.6 mph - N/A   Overcast
4:45 AM 35.6°F 32.0°F 87% 29.99 in 10.0 miles South 4.6 mph - N/A   Overcast
4:53 AM 35.1°F 32.0°F 89% 30.00 in 10.0 miles South 3.5 mph - N/A   Overcast
5:04 AM 35.6°F 32.0°F 87% 29.99 in 10.0 miles SSW 3.5 mph - N/A   Overcast
5:53 AM 36.0°F 33.1°F 89% 30.01 in 10.0 miles South 3.5 mph - N/A   Overcast
6:53 AM 35.6°F 32.0°F 87% 30.02 in 10.0 miles SW 4.6 mph - N/A   Overcast
7:53 AM 36.0°F 32.0°F 86% 30.06 in 10.0 miles SW 4.6 mph - N/A   Overcast
8:53 AM 36.0°F 33.1°F 89% 30.09 in 10.0 miles West 3.5 mph - N/A   Overcast
9:53 AM 37.0°F 33.1°F 86% 30.09 in 10.0 miles Calm Calm - N/A   Overcast
9:54 AM 37.0°F 33.1°F 86% 30.09 in 10.0 miles Calm Calm - N/A   Overcast
10:04 AM 35.6°F 33.8°F 93% 30.08 in 10.0 miles NW 3.5 mph - N/A   Overcast
10:53 AM 37.0°F 33.1°F 86% 30.09 in 10.0 miles WSW 3.5 mph - N/A   Overcast
11:16 AM 37.4°F 32.0°F 81% 30.08 in 10.0 miles Variable 4.6 mph - N/A   Overcast
11:53 AM 37.0°F 32.0°F 82% 30.09 in 10.0 miles WNW 3.5 mph - N/A   Overcast
12:53 PM 37.9°F 32.0°F 79% 30.07 in 10.0 miles WSW 5.8 mph - N/A   Overcast
1:53 PM 37.9°F 32.0°F 79% 30.09 in 10.0 miles WSW 4.6 mph - N/A   Overcast
2:53 PM 37.9°F 33.1°F 83% 30.09 in 8.0 miles Calm Calm - 0.01 in Rain Light Rain
3:53 PM 37.0°F 34.0°F 89% 30.10 in 7.0 miles Calm Calm - 0.00 in Rain Light Rain
4:53 PM 37.0°F 32.0°F 82% 30.10 in 10.0 miles NW 3.5 mph - 0.01 in   Overcast
4:58 PM 37.4°F 32.0°F 81% 30.09 in 10.0 miles West 3.5 mph - N/A   Overcast
5:53 PM 36.0°F 32.0°F 86% 30.10 in 10.0 miles NW 4.6 mph - 0.00 in   Overcast
6:53 PM 36.0°F 30.9°F 82% 30.10 in 10.0 miles Calm Calm - N/A   Overcast
7:53 PM 35.1°F 30.9°F 85% 30.11 in 10.0 miles WNW 6.9 mph - 0.00 in   Overcast
8:43 PM 33.8°F 32.0°F 93% 30.09 in 10.0 miles Calm Calm - 0.00 in   Overcast
8:53 PM 34.0°F 32.0°F 92% 30.11 in 10.0 miles Calm Calm - 0.00 in   Overcast
9:53 PM 34.0°F 30.9°F 89% 30.11 in 10.0 miles Calm Calm - N/A   Overcast
10:53 PM 34.0°F 32.0°F 92% 30.12 in 10.0 miles NW 3.5 mph - N/A   Overcast
11:53 PM 34.0°F 30.0°F 85% 30.13 in 10.0 miles Calm Calm - N/A   Overcast
Moon Phase
Jan. 10 Jan. 11 Jan. 18 Jan. 26 Feb. 03
Sunrise:07:55 AM (PST) Moon Rise:06:39 AM (PST)1/10
Sunset:04:41 PM (PST) Moon Set:03:56 PM (PST)1/10

Copyright © 2014 The Weather Underground, Inc.